Date String (YYYY-MM-DD hh:mm:ss) UTC,Instrument flags,Ambient pressure (hPa),Sample flow (lpm),Bypass flow (lpm),Sample temperature (°C),Ambient temperature (°C),ASC tube jacket temperature (°C),LED temperature (°C),Box temperature (°C),Sample RH (%),Span deviation,Mass concentration (μg/m³),Mass concentration (μg/m³),Mass concentration (μg/m³)
DateTimeUTC,F1_M11,P_M11,Q1_M11,Q2_M11,T1_M11,T2_M11,T3_M11,T4_M11,T5_M11,U1_M11,ZSPAN_M11,X0_M11,X2_M11,X1_M11
2023-05-03 06:00:00,,0828.6,5.00,0.00,29.7,28.1,00.0,38.1,31.1,17.9,0000.0,0011.17,0005.15,0003.80
2023-05-03 06:01:00,,0828.6,4.99,0.00,29.7,28.1,00.0,38.1,31.1,17.8,0000.0,0011.38,0005.21,0003.80
2023-05-03 06:02:00,,0828.6,5.00,0.00,29.7,28.1,00.0,38.1,31.2,18.2,0000.0,0011.33,0005.16,0003.79
2023-05-03 06:03:00,,0828.6,5.00,0.00,29.7,28.1,00.0,38.1,31.2,18.3,0000.0,0011.19,0005.13,0003.78
2023-05-03 06:04:00,,0828.6,5.01,0.00,29.7,28.1,00.0,38.1,31.2,18.4,0000.0,0011.31,0005.17,0003.78
2023-05-03 06:05:00,,0828.6,5.02,0.00,29.7,28.1,00.0,38.1,31.2,18.4,0000.0,0011.38,0005.19,0003.78
2023-05-03 06:06:00,,0828.6,5.00,0.00,29.7,28.1,00.0,38.1,31.2,18.4,0000.0,0011.63,0005.22,0003.79
2023-05-03 06:07:00,,0828.6,5.00,0.00,29.7,28.1,00.0,38.1,31.2,18.4,0000.0,0011.66,0005.24,0003.80
2023-05-03 06:08:00,,0828.6,5.00,0.00,29.7,28.1,00.0,38.1,31.2,18.5,0000.0,0011.67,0005.27,0003.80
2023-05-03 06:09:00,,0828.6,5.00,0.00,29.7,28.1,00.0,38.1,31.2,18.5,0000.0,0012.20,0005.39,0003.82
2023-05-03 06:10:00,,0828.6,5.00,0.00,29.7,28.1,00.0,38.1,31.2,18.4,0000.0,0012.69,0005.44,0003.84
2023-05-03 06:11:00,,0828.7,4.99,0.00,29.7,28.1,00.0,38.1,31.2,18.4,0000.0,0012.64,0005.45,0003.85
2023-05-03 06:12:00,,0828.7,5.00,0.00,29.7,28.1,00.0,38.1,31.1,18.4,0000.0,0012.80,0005.46,0003.85
2023-05-03 06:13:00,,0828.7,5.00,0.00,29.7,28.1,00.0,38.1,31.1,18.5,0000.0,0012.95,0005.53,0003.86
2023-05-03 06:14:00,,0828.6,5.00,0.00,29.7,28.1,00.0,38.1,31.1,18.5,0000.0,0013.74,0005.65,0003.88
2023-05-03 06:15:00,,0828.6,5.00,0.00,29.7,28.1,00.0,38.1,31.1,18.4,0000.0,0014.51,0005.68,0003.89
2023-05-03 06:16:00,,0828.6,5.00,0.00,29.7,28.1,00.0,38.1,31.1,18.4,0000.0,0014.54,0005.69,0003.90
2023-05-03 06:17:00,,0828.6,5.00,0.00,29.7,28.1,00.0,38.1,31.1,18.3,0000.0,0014.81,0005.70,0003.90
2023-05-03 06:18:00,,0828.6,5.00,0.00,29.7,28.1,00.0,38.1,31.2,18.2,0000.0,0015.11,0005.80,0003.91
2023-05-03 06:19:00,,0828.6,5.00,0.00,29.7,28.1,00.0,38.1,31.2,18.2,0000.0,0014.82,0005.85,0003.91
2023-05-03 06:20:00,,0828.6,5.01,0.00,29.7,28.0,00.0,38.1,31.2,18.3,0000.0,0014.37,0005.76,0003.90
2023-05-03 06:21:00,,0828.6,5.01,0.00,29.7,28.0,00.0,38.0,31.1,18.4,0000.0,0014.01,0005.75,0003.90
2023-05-03 06:22:00,,0828.6,4.99,0.00,29.7,28.0,00.0,38.1,31.1,18.3,0000.0,0013.81,0005.77,0003.91
2023-05-03 06:23:00,,0828.6,4.99,0.00,29.7,28.0,00.0,38.0,31.0,18.2,0000.0,0013.59,0005.76,0003.91
2023-05-03 06:24:00,,0828.6,5.00,0.00,29.7,28.0,00.0,38.0,31.0,18.1,0000.0,0013.66,0005.71,0003.90
2023-05-03 06:25:00,,0828.6,4.99,0.00,29.6,28.0,00.0,38.0,31.1,18.1,0000.0,0013.15,0005.61,0003.89
2023-05-03 06:26:00,,0828.6,5.00,0.00,29.6,28.0,00.0,38.0,31.1,18.1,0000.0,0012.27,0005.56,0003.88
2023-05-03 06:27:00,,0828.6,5.00,0.00,29.6,28.0,00.0,38.0,31.1,18.1,0000.0,0012.11,0005.53,0003.87
2023-05-03 06:28:00,,0828.6,5.01,0.00,29.6,28.0,00.0,38.0,31.1,18.1,0000.0,0011.66,0005.47,0003.85
2023-05-03 06:29:00,,0828.6,5.00,0.00,29.6,28.0,00.0,38.0,31.1,18.0,0000.0,0011.12,0005.38,0003.83
2023-05-03 06:30:00,,0828.6,5.00,0.00,29.6,28.0,00.0,38.0,31.1,18.0,0000.0,0010.94,0005.25,0003.82
2023-05-03 06:31:00,,0828.6,4.99,0.00,29.6,28.0,00.0,38.0,31.1,18.0,0000.0,0010.91,0005.24,0003.83
2023-05-03 06:32:00,,0828.6,5.00,0.00,29.6,28.0,00.0,38.0,31.1,18.0,0000.0,0010.93,0005.23,0003.82
2023-05-03 06:33:00,,0828.6,5.00,0.00,29.6,28.0,00.0,38.0,31.1,18.0,0000.0,0010.90,0005.18,0003.80
2023-05-03 06:34:00,,0828.6,5.01,0.00,29.6,28.0,00.0,38.0,31.1,17.9,0000.0,0010.97,0005.19,0003.81
2023-05-03 06:35:00,,0828.6,4.99,0.00,29.6,28.0,00.0,38.0,31.1,17.8,0000.0,0010.95,0005.21,0003.81
2023-05-03 06:36:00,,0828.6,4.99,0.00,29.6,27.9,00.0,38.0,31.0,17.8,0000.0,0010.92,0005.25,0003.83
2023-05-03 06:37:00,,0828.6,5.00,0.00,29.6,27.9,00.0,38.0,31.0,17.8,0000.0,0010.98,0005.26,0003.83
2023-05-03 06:38:00,,0828.6,5.01,0.00,29.6,27.9,00.0,38.0,31.0,17.7,0000.0,0011.05,0005.28,0003.84
2023-05-03 06:39:00,,0828.6,4.99,0.00,29.6,27.9,00.0,38.0,31.0,17.7,0000.0,0011.25,0005.31,0003.85
2023-05-03 06:40:00,,0828.6,4.99,0.00,29.6,27.9,00.0,38.0,31.0,17.8,0000.0,0011.32,0005.34,0003.86
2023-05-03 06:41:00,,0828.6,5.00,0.00,29.6,27.9,00.0,38.0,31.0,17.8,0000.0,0011.17,0005.30,0003.85
2023-05-03 06:42:00,,0828.6,5.00,0.00,29.6,27.9,00.0,38.0,31.0,17.8,0000.0,0010.77,0005.33,0003.85
2023-05-03 06:43:00,,0828.6,4.99,0.00,29.6,27.9,00.0,38.0,31.0,17.8,0000.0,0010.65,0005.29,0003.84
2023-05-03 06:44:00,,0828.6,4.99,0.00,29.6,27.9,00.0,38.0,31.0,17.8,0000.0,0010.53,0005.28,0003.82
2023-05-03 06:45:00,,0828.6,5.00,0.00,29.6,27.9,00.0,38.0,31.1,17.8,0000.0,0010.62,0005.29,0003.81
2023-05-03 06:46:00,,0828.6,5.03,0.00,29.6,27.9,00.0,38.0,31.1,17.7,0000.0,0010.59,0005.24,0003.79
2023-05-03 06:47:00,,0828.6,4.99,0.00,29.6,27.9,00.0,38.0,31.0,17.7,0000.0,0010.53,0005.22,0003.78
2023-05-03 06:48:00,,0828.6,4.99,0.00,29.6,27.9,00.0,38.0,31.1,17.7,0000.0,0010.94,0005.17,0003.76
2023-05-03 06:49:00,,0828.6,5.01,0.00,29.6,27.9,00.0,38.0,31.1,17.7,0000.0,0011.09,0005.15,0003.75
2023-05-03 06:50:00,,0828.6,5.00,0.00,29.6,27.9,00.0,38.0,31.1,17.7,0000.0,0011.18,0005.17,0003.73
2023-05-03 06:51:00,,0828.6,4.99,0.00,29.6,27.9,00.0,38.0,31.1,17.6,0000.0,0011.16,0005.17,0003.72
2023-05-03 06:52:00,,0828.5,5.00,0.00,29.6,27.9,00.0,38.0,31.0,17.6,0000.0,0011.19,0005.18,0003.72
2023-05-03 06:53:00,,0828.6,5.02,0.00,29.5,27.9,00.0,38.0,31.0,17.6,0000.0,0011.10,0005.10,0003.71
2023-05-03 06:54:00,,0828.6,5.00,0.00,29.5,27.9,00.0,38.0,31.0,17.6,0000.0,0011.20,0005.09,0003.70
2023-05-03 06:55:00,,0828.6,4.99,0.00,29.5,27.9,00.0,38.0,31.0,17.6,0000.0,0011.29,0005.07,0003.69
2023-05-03 06:56:00,,0828.6,5.00,0.00,29.5,27.9,00.0,38.0,31.0,17.5,0000.0,0011.26,0005.05,0003.70
2023-05-03 06:57:00,,0828.6,5.02,0.00,29.5,27.9,00.0,37.9,31.0,17.5,0000.0,0011.18,0005.07,0003.70
2023-05-03 06:58:00,,0828.6,4.99,0.00,29.5,27.9,00.0,37.9,31.0,17.5,0000.0,0011.26,0005.08,0003.71
2023-05-03 06:59:00,,0828.6,4.99,0.00,29.5,27.9,00.0,37.9,31.0,17.5,0000.0,0010.75,0005.07,0003.70
